TimeHST,TemperatureF,Dew PointF,Humidity,Sea Level PressureIn,VisibilityMPH,Wind Direction,Wind SpeedMPH,Gust SpeedMPH,PrecipitationIn,Events,Conditions,WindDirDegrees,DateUTC
12:53 AM,68.0,62.1,81,30.16,10.0,Variable,3.5,-,0.00,,Overcast,0,2013-02-18 10:53:00
1:53 AM,66.0,61.0,84,30.14,10.0,West,6.9,-,0.04,,Overcast,270,2013-02-18 11:53:00
2:00 AM,66.0,62.1,87,30.14,10.0,WSW,6.9,-,N/A,,Mostly Cloudy,250,2013-02-18 12:00:00
2:53 AM,66.0,62.1,87,30.13,10.0,West,6.9,-,0.03,,Mostly Cloudy,260,2013-02-18 12:53:00
3:53 AM,66.0,62.1,87,30.12,6.0,NE,11.5,-,0.00,Rain,Rain,50,2013-02-18 13:53:00
4:06 AM,64.9,62.1,90,30.12,5.0,NE,5.8,-,0.08,Rain,Light Rain,40,2013-02-18 14:06:00
4:20 AM,66.0,62.1,87,30.12,4.0,East,3.5,-,0.10,Rain,Rain,80,2013-02-18 14:20:00
4:53 AM,64.9,61.0,87,30.12,10.0,West,5.8,-,0.12,Rain,Light Rain,260,2013-02-18 14:53:00
5:08 AM,66.0,62.1,87,30.12,8.0,West,6.9,-,0.00,,Overcast,260,2013-02-18 15:08:00
5:53 AM,64.9,61.0,87,30.14,3.0,East,10.4,28.8,0.08,Rain,Rain,80,2013-02-18 15:53:00
6:07 AM,64.9,64.0,97,30.14,10.0,Calm,Calm,-,0.02,,Overcast,0,2013-02-18 16:07:00
6:37 AM,64.9,63.0,93,30.14,10.0,WSW,9.2,-,0.03,,Overcast,250,2013-02-18 16:37:00
6:53 AM,64.9,63.0,93,30.15,3.0,SW,4.6,-,0.12,Rain,Rain,230,2013-02-18 16:53:00
7:12 AM,66.9,64.0,90,30.15,10.0,East,4.6,-,0.02,,Overcast,90,2013-02-18 17:12:00
7:38 AM,66.0,64.0,93,30.17,2.5,East,8.1,-,0.02,Rain,Heavy Rain,100,2013-02-18 17:38:00
7:45 AM,66.0,63.0,90,30.17,5.0,SE,8.1,-,0.09,Rain,Light Rain,130,2013-02-18 17:45:00
8:25 AM,68.0,64.0,87,30.18,2.0,ENE,15.0,-,0.11,Rain,Heavy Rain,60,2013-02-18 18:25:00
8:35 AM,68.0,64.0,87,30.18,5.0,ENE,17.3,25.3,0.18,Rain,Light Rain,60,2013-02-18 18:35:00
8:53 AM,68.0,66.0,93,30.18,6.0,ENE,15.0,-,0.19,Rain,Light Rain,70,2013-02-18 18:53:00
9:10 AM,68.0,64.9,90,30.18,2.0,East,18.4,21.9,0.03,Rain,Light Rain,90,2013-02-18 19:10:00
9:13 AM,66.9,64.9,93,30.18,2.0,East,19.6,26.5,0.03,Rain,Rain,80,2013-02-18 19:13:00
9:24 AM,66.9,64.9,93,30.18,3.0,ENE,9.2,-,0.09,Rain,Rain,60,2013-02-18 19:24:00
9:39 AM,69.1,66.0,90,30.18,10.0,ENE,9.2,-,0.11,,Overcast,60,2013-02-18 19:39:00
9:53 AM,71.1,68.0,90,30.17,10.0,NNE,8.1,-,0.11,,Overcast,30,2013-02-18 19:53:00
10:15 AM,70.0,66.9,90,30.18,10.0,NE,5.8,-,N/A,,Overcast,40,2013-02-18 20:15:00
10:49 AM,68.0,66.2,94,30.18,1.5,ENE,13.8,20.7,0.00,Rain,Light Rain,60,2013-02-18 20:49:00
10:53 AM,66.9,64.0,90,30.17,2.0,ENE,13.8,20.7,0.04,Rain,Heavy Rain,60,2013-02-18 20:53:00
11:09 AM,71.1,68.0,90,30.16,4.0,East,8.1,-,0.10,,Overcast,90,2013-02-18 21:09:00
11:53 AM,70.0,66.0,87,30.15,10.0,ESE,12.7,-,0.10,,Overcast,120,2013-02-18 21:53:00
12:14 PM,68.0,66.0,93,30.15,3.0,ESE,12.7,-,0.00,Rain,Light Rain,120,2013-02-18 22:14:00
12:17 PM,68.0,66.0,93,30.15,3.0,SE,10.4,-,0.00,Rain,Light Rain,130,2013-02-18 22:17:00
12:53 PM,71.1,68.0,90,30.13,10.0,ENE,4.6,-,0.01,,Overcast,70,2013-02-18 22:53:00
1:09 PM,71.1,66.0,84,30.13,2.0,East,18.4,26.5,0.00,Rain,Light Rain,80,2013-02-18 23:09:00
1:20 PM,69.1,66.0,90,30.13,4.0,East,8.1,-,0.02,Rain,Light Rain,80,2013-02-18 23:20:00
1:53 PM,72.0,69.1,91,30.11,10.0,NE,8.1,-,0.02,,Overcast,40,2013-02-18 23:53:00
2:09 PM,71.1,66.9,87,30.11,10.0,NNE,4.6,-,N/A,,Overcast,20,2013-02-19 00:09:00
2:21 PM,72.0,66.9,84,30.10,10.0,Calm,Calm,-,N/A,,Overcast,0,2013-02-19 00:21:00
2:25 PM,70.0,66.9,90,30.11,2.0,SE,10.4,-,0.00,Rain,Light Rain,130,2013-02-19 00:25:00
2:28 PM,68.0,64.9,90,30.11,1.0,SE,10.4,-,0.00,Rain,Light Rain,130,2013-02-19 00:28:00
2:39 PM,66.9,64.9,93,30.10,2.5,SE,3.5,-,0.10,Rain,Rain,130,2013-02-19 00:39:00
2:43 PM,66.9,66.0,97,30.10,3.0,Variable,4.6,-,0.10,Rain,Light Rain,0,2013-02-19 00:43:00
2:53 PM,66.9,64.9,93,30.09,3.0,East,4.6,-,0.12,Rain,Light Rain,80,2013-02-19 00:53:00
3:53 PM,69.1,66.9,93,30.09,10.0,Calm,Calm,-,0.01,,Overcast,0,2013-02-19 01:53:00
4:53 PM,71.1,64.9,81,30.09,10.0,East,11.5,-,N/A,,Overcast,80,2013-02-19 02:53:00
5:53 PM,71.1,62.1,73,30.10,10.0,East,9.2,-,N/A,,Overcast,80,2013-02-19 03:53:00
6:53 PM,70.0,61.0,73,30.11,10.0,ENE,9.2,-,0.00,,Overcast,60,2013-02-19 04:53:00
7:53 PM,70.0,57.9,65,30.14,10.0,East,10.4,-,N/A,,Overcast,90,2013-02-19 05:53:00
8:53 PM,69.1,57.0,65,30.16,10.0,East,10.4,-,N/A,,Mostly Cloudy,80,2013-02-19 06:53:00
9:53 PM,68.0,59.0,73,30.16,10.0,Calm,Calm,-,N/A,,Overcast,0,2013-02-19 07:53:00
10:53 PM,66.9,63.0,87,30.16,10.0,NE,5.8,-,0.04,Rain,Light Rain,40,2013-02-19 08:53:00
11:53 PM,66.9,63.0,87,30.15,10.0,WNW,3.5,-,0.02,Rain,Light Rain,290,2013-02-19 09:53:00